Location: Alphen
(52.1351°N, 4.6549°E)
Time: 01:35:38
(UTC+00:00)

Cosmos 1300 - Pass Details

Date: 27 January 2021
Orbit: 511 x 513 km, 82.5° (Epoch: 27 February)

Event Time Altitude Azimuth Distance (km) Brightness Sun altitude
Rises 05:40:57 0° 192° (SSW) 2,617 6.3 -16.4°
Reaches altitude 10° 05:43:04 10° 194° (SSW) 1,736 5.3 -16.1°
Maximum altitude 05:46:52 79° 280° (W) 531 2.5 -15.5°
Drops below altitude 10° 05:50:43 10° 9° (N) 1,751 5.4 -14.9°
Sets 05:52:52 0° 10° (N) 2,643 6.3 -14.6°
